Location: Newark
(50.4667°N, 5.5667°E)
Time: 01:57:43
(UTC+00:00)

ISS - Visible Passes

Search period start: 15 November 2019 00:00
Search period end: 25 November 2019 00:00
Orbit: 412 x 421 km, 51.6° (Epoch: 15 November)

Date Brightness Start Highest point End Pass type
(mag) Time Alt. Az. Time Alt. Az. Time Alt. Az.
22 Nov -1.4 17:28:54 10° SSE 17:29:50 12° SSE 17:29:50 12° SSE visible
23 Nov -1.6 18:15:03 10° SW 18:16:29 21° SSW 18:16:29 21° SSW visible
24 Nov -2.4 17:27:01 10° SSW 17:29:50 25° SE 17:30:08 25° SE visible
24 Nov -0.3 19:02:56 10° WSW 19:03:03 11° WSW 19:03:03 11° WSW visible
